User: anonymous   Login
Location: Mount Wilson Observatory
(34.2257°N, 118.0571°W)
Time: 11:38:49
(UTC-07:00)
Language:

ATLAS 3B CENTAUR R/B - Orbit

View from above orbital plane
View from above orbital plane
View from above satellite
View from above satellite

Ground track
Ground track

The orbit data is extracted from the following two-line orbital elements,

1 28118U 03057B   17230.70199970  .00059325  00000-0  91532-3 0  9997
2 28118  28.1181 324.5693 3025595 171.5218 195.1185  9.42115024295553
Epoch (UTC): 18 August 2017 16:50:52
Eccentricity: 0.3025595
inclination: 28.1181°
perigee height: 226 km
apogee height: 5956 km
right ascension of ascending node: 324.5693°
argument of perigee: 171.5218°
revolutions per day: 9.42115024
mean anomaly at epoch: 195.1185°
orbit number at epoch: 29555

The dashed part of the orbit path shows where the satellite is in the earth's shadow,  

DLR